Weather History for KICT - May, 2012

Change the Weather History Date:

Friday, May 11, 2012

  Actual Average Record
Temperature  
Mean Temperature 67 °F 64 °F  
Max Temperature 76 °F 75 °F 94 °F (2000)
Min Temperature 57 °F 54 °F 33 °F (1946)
Degree Days  
Heating Degree Days 0 3  
Month to date heating degree days 7 44  
Since 1 July heating degree days 3612 4552  
Cooling Degree Days 2 3  
Month to date cooling degree days 74 21  
Year to date cooling degree days 175 47  
Growing Degree Days 16 (Base 50)    
Moisture  
Dew Point 53 °F    
Average Humidity 61    
Maximum Humidity 75    
Minimum Humidity 46    
Precipitation  
Precipitation T in 0.14 in 1.41 in (1929)
Month to date precipitation 0.51 1.48  
Year to date precipitation 13.38 8.77  
Snow  
Snow 0.00 in 0.00 in 0.00 in (2007)
Month to date snowfall 0.0 0.0  
Since 1 July snowfall 3.0 14.9  
Snow Depth 0.00 in    
Sea Level Pressure  
Sea Level Pressure 30.01 in    
Wind  
Wind Speed 6 mph (ESE)    
Max Wind Speed 16 mph    
Max Gust Speed 20 mph    
Visibility 10 miles    
Events      
T = Trace of Precipitation, MM = Missing Value Source: NWS Daily Summary

Daily Weather History Graph

Daily Weather History Graph

Search for Another Location

Airport or City:

Trip Planner

Search our weather history database for the weather conditions in past years. The results will help you decide how hot, cold, wet, or windy it might be!

Date:

Astronomy

May. 11, 2012 Rise Set
Actual Time 6:23 AM CDT 8:29 PM CDT
Civil Twilight 5:54 AM CDT 8:58 PM CDT
Nautical Twilight 5:18 AM CDT 9:34 PM CDT
Astronomical Twilight 4:40 AM CDT 10:12 PM CDT
Moon 1:10 AM CDT (5/11) 11:56 AM CDT (5/11)
Length of Visible Light 15h 04m
Length of Day
14h 06m
Waning Gibbous, 63% of the Moon is Illuminated
May 11
Waning Gibbous
May 12
Last Quarter
May 20
New
May 28
First Quarter
Jun 4
Full

Hourly Weather History & Observations

Time (CDT) Temp. Dew Point Humidity Pressure Visibility Wind Dir Wind Speed Gust Speed Precip Events Conditions
12:53 AM 63.0 °F 53.1 °F 70% 29.89 in 10.0 mi SSE 9.2 mph - N/A   Clear
1:53 AM 63.0 °F 52.0 °F 67% 29.89 in 10.0 mi South 9.2 mph - N/A   Partly Cloudy
2:53 AM 61.0 °F 52.0 °F 72% 29.89 in 10.0 mi South 8.1 mph - N/A   Partly Cloudy
3:53 AM 59.0 °F 52.0 °F 78% 29.90 in 10.0 mi SSE 6.9 mph - N/A   Partly Cloudy
4:53 AM 59.0 °F 51.1 °F 75% 29.91 in 10.0 mi Calm Calm - N/A   Scattered Clouds
5:53 AM 59.0 °F 52.0 °F 78% 29.92 in 10.0 mi East 3.5 mph - N/A   Mostly Cloudy
6:53 AM 60.1 °F 52.0 °F 75% 29.94 in 10.0 mi East 3.5 mph - N/A   Overcast
7:53 AM 62.1 °F 54.0 °F 75% 29.96 in 10.0 mi NE 4.6 mph - N/A   Mostly Cloudy
8:53 AM 64.9 °F 55.0 °F 70% 29.99 in 10.0 mi NE 4.6 mph - N/A   Overcast
9:53 AM 69.1 °F 53.1 °F 57% 30.02 in 10.0 mi East 3.5 mph - N/A   Overcast
10:53 AM 72.0 °F 51.1 °F 48% 30.03 in 10.0 mi Calm Calm - N/A   Overcast
11:53 AM 73.9 °F 52.0 °F 46% 30.04 in 10.0 mi SE 9.2 mph - N/A   Overcast
12:53 PM 75.0 °F 53.1 °F 46% 30.04 in 10.0 mi SE 9.2 mph - N/A   Overcast
1:53 PM 75.0 °F 54.0 °F 48% 30.04 in 10.0 mi SE 8.1 mph - N/A   Overcast
2:53 PM 73.0 °F 52.0 °F 48% 30.05 in 10.0 mi SE 9.2 mph - N/A   Overcast
3:53 PM 72.0 °F 54.0 °F 53% 30.05 in 10.0 mi South 10.4 mph - N/A   Overcast
4:53 PM 70.0 °F 54.0 °F 57% 30.06 in 10.0 mi SSE 6.9 mph - N/A   Overcast
5:53 PM 69.1 °F 53.1 °F 57% 30.07 in 10.0 mi SSE 12.7 mph - N/A   Overcast
6:53 PM 66.9 °F 52.0 °F 59% 30.07 in 10.0 mi SSE 6.9 mph - N/A   Overcast
7:53 PM 64.9 °F 53.1 °F 65% 30.06 in 10.0 mi Calm Calm - N/A   Mostly Cloudy
8:53 PM 64.9 °F 53.1 °F 65% 30.07 in 10.0 mi Calm Calm - N/A   Mostly Cloudy
9:53 PM 64.0 °F 52.0 °F 65% 30.09 in 10.0 mi NW 8.1 mph - N/A   Overcast
10:53 PM 64.9 °F 50.0 °F 58% 30.11 in 10.0 mi North 5.8 mph - N/A   Overcast
11:53 PM 64.9 °F 51.1 °F 61% 30.13 in 10.0 mi NNE 5.8 mph - N/A   Overcast